Powrót do katalogu

STARLINK-38037

AktywnyŁącznośćSSO
NORAD 69750·PAYLOAD·🇺🇸 United States

Wystrzelony Jul 2, 2026 z Vandenberg Space Force Base

Loading…

Następne Przeloty (najbliższe 24 godziny)

TLE

ŚwieżeSource: CelesTrak SupGP

Epoka: Sep 14, 2026, 22:44 UTC

1 69750C 26150M   26257.94770833  .00086776  00000+0  26941-2 0  2578
2 69750  97.2849  96.8834 0001758  93.1793 151.3215 15.33390292    15

Śledź STARLINK-38037 w czasie rzeczywistym z AllMySat

Download on the App Store